Home   Weather   Recklinghausen   Past weeks

Flag for Germany Past Weather in Recklinghausen, North Rhine-Westphalia, Germany — Yesterday and Last 2 Weeks

52 °F

Passing clouds.

Feels Like: 48 °F
Forecast: 45 / 57 °F
Wind: 10 mph from Southwest

Location: Duesseldorf

Current Time: Oct 28, 2016 at 2:32:34 AM

Latest Report: Oct 28, 2016 at 1:50 AM

Visibility: N/A

Pressure: 30.48 "Hg

Humidity: 94%

Dew Point: 50 °F

Location of RecklinghausenLocation

Past Weather in Recklinghausen — Graph


Recklinghausen Temperature Yesterday

Maximum temperature yesterday: 55 °F (at 12:50 PM)
Minimum temperature yesterday: 50 °F (at 12:20 AM)
Average temperature yesterday: 52 °F

High & Low Weather Summary for the Past Weeks

High66 °F (Oct 16, 2:20 PM)100% (Oct 14, 11:20 PM)30.51 "Hg (Oct 14, 11:20 PM)
Low32 °F (Oct 23, 6:20 AM)52% (Oct 16, 2:20 PM)29.65 "Hg (Oct 15, 1:20 AM)
Average49 °F88%30.04 "Hg
* Reported Oct 13 1:20 AM — Oct 28 1:20 AM, Recklinghausen, Weather by CustomWeather, © 2016

Note: Actual official high and low records may vary slightly from our data, if they occured in-between our weather recording intervals... More about our weather records


Recklinghausen Weather History for the Previous 24 Hours

Scroll right to see more
Time TempWeatherWind HumidityBarometerVisibility
1:20 AM
Fri, Oct 28
52 °FPassing clouds.7 mph94%30.51 "HgN/A
12:50 AM52 °FPassing clouds.8 mph94%30.48 "HgN/A
12:20 AM52 °FPassing clouds.9 mph94%30.48 "HgN/A
11:50 PM
Thu, Oct 27
50 °FPassing clouds.9 mph100%30.51 "HgN/A
11:20 PM50 °FPassing clouds.8 mph94%30.48 "HgN/A
10:50 PM50 °FPassing clouds.7 mph94%30.48 "HgN/A
10:20 PM50 °FPassing clouds.7 mph94%30.48 "HgN/A
9:50 PM52 °FPassing clouds.8 mph94%30.48 "HgN/A
9:20 PM54 °FPassing clouds.8 mph88%30.48 "HgN/A
8:50 PM52 °FPassing clouds.8 mph94%30.48 "HgN/A
8:20 PM52 °FPassing clouds.7 mph94%30.48 "HgN/A
7:50 PM54 °FPartly cloudy.8 mph88%30.48 "HgN/A
7:20 PM54 °FPartly cloudy.8 mph88%30.48 "HgN/A
6:50 PM54 °FPassing clouds.8 mph88%30.48 "HgN/A
6:20 PM54 °FPassing clouds.6 mph88%30.48 "HgN/A
5:50 PM54 °FBroken clouds.6 mph88%30.51 "HgN/A
5:20 PM55 °FPartly sunny.8 mph82%30.51 "HgN/A
4:50 PM55 °FPartly sunny.10 mph82%30.51 "HgN/A
4:20 PM55 °FPartly sunny.8 mph82%30.51 "HgN/A
3:50 PM55 °FPartly sunny.10 mph82%30.51 "Hg5 mi
3:20 PM55 °FPartly sunny.10 mph82%30.51 "Hg5 mi
2:50 PM55 °FPartly sunny.9 mph88%30.48 "Hg5 mi
2:20 PM55 °FBroken clouds.9 mph88%30.51 "Hg5 mi
1:50 PM55 °FBroken clouds.8 mph88%30.51 "Hg5 mi
1:20 PM55 °FPartly sunny.9 mph88%30.51 "Hg5 mi
12:50 PM55 °FPartly sunny.7 mph88%30.51 "Hg4 mi
12:20 PM54 °FLow clouds.8 mph94%30.51 "Hg4 mi
11:50 AM54 °FLow clouds.9 mph94%30.51 "Hg4 mi
11:20 AM52 °FLow clouds.9 mph94%30.51 "Hg4 mi
10:50 AM52 °FLow clouds.9 mph94%30.51 "Hg4 mi
10:20 AM52 °FLow clouds.9 mph88%30.51 "Hg4 mi
9:50 AM52 °FPartly sunny.9 mph88%30.48 "Hg4 mi
9:20 AM50 °FPartly sunny.8 mph94%30.48 "Hg4 mi
8:50 AM50 °FPartly sunny.10 mph88%30.48 "Hg4 mi
8:20 AM52 °FPartly sunny.7 mph82%30.48 "Hg5 mi
7:50 AM50 °FPassing clouds.8 mph88%30.45 "Hg6 mi
7:20 AM50 °FPartly cloudy.9 mph88%30.45 "Hg6 mi
6:50 AM52 °FPassing clouds.7 mph82%30.45 "Hg5 mi
6:20 AM52 °FPassing clouds.8 mph82%30.45 "Hg4 mi
5:50 AM50 °FPassing clouds.8 mph88%30.45 "Hg4 mi
5:20 AM50 °FPassing clouds.7 mph88%30.45 "Hg4 mi
4:50 AM50 °FPassing clouds.7 mph88%30.45 "Hg4 mi
4:20 AM50 °FPassing clouds.8 mph88%30.45 "Hg4 mi
3:50 AM50 °FPassing clouds.7 mph88%30.45 "Hg4 mi
3:20 AM50 °FPassing clouds.8 mph88%30.45 "Hg4 mi
2:50 AM50 °FPassing clouds.6 mph88%30.45 "Hg4 mi
2:20 AM50 °FPassing clouds.6 mph88%30.45 "Hg4 mi
Weather by CustomWeather, © 2016

See weather overviewHow to use our weather pages